Location: Koslow
(50.3020°N, 18.5663°E)
Time: 14:53:15
(UTC+00:00)

Spot 4 Rocket - Visible Passes

Search period start: 28 September 2020 00:00
Search period end: 08 October 2020 00:00
Orbit: 776 x 782 km, 98.7° (Epoch: 27 September)

Date Brightness Start Highest point End Pass type
(mag) Time Alt. Az. Time Alt. Az. Time Alt. Az.
28 Sep 5.5 01:15:20 10° NNE 01:19:52 30° E 01:21:08 27° ESE visible
28 Sep 4.4 02:54:23 10° N 02:59:16 44° WNW 03:01:37 27° WSW visible
29 Sep 6.3 00:43:26 10° NE 00:46:43 17° E 00:47:51 16° ESE visible
29 Sep 3.9 02:21:25 10° NNE 02:26:36 80° WNW 02:28:20 43° SSW visible
29 Sep 5.7 04:02:06 10° NNW 04:05:04 16° NW 04:08:01 10° W visible
30 Sep 4.5 01:48:41 10° NNE 01:53:46 57° E 01:55:03 44° SSE visible
30 Sep 5.1 03:28:30 10° N 03:32:42 26° WNW 03:35:31 16° WSW visible
01 Oct 5.5 01:16:14 10° NNE 01:20:48 31° E 01:21:45 29° ESE visible
01 Oct 4.4 02:55:18 10° N 03:00:11 44° WNW 03:02:14 29° WSW visible
02 Oct 6.3 00:44:20 10° NE 00:47:39 17° E 00:48:27 16° E visible
02 Oct 3.9 02:22:20 10° NNE 02:27:31 79° WNW 02:28:56 48° SSW visible
02 Oct 5.7 04:03:02 10° NNW 04:05:58 15° NW 04:08:53 10° W visible
03 Oct 4.5 01:49:36 10° NNE 01:54:41 57° ESE 01:55:38 49° SE visible
03 Oct 5.1 03:29:26 10° N 03:33:36 25° WNW 03:36:07 18° W visible
04 Oct 5.5 01:17:08 10° NNE 01:21:42 31° E 01:22:20 30° ESE visible
04 Oct 4.4 02:56:14 10° N 03:01:05 43° WNW 03:02:49 32° WSW visible
05 Oct 6.3 00:45:13 10° NE 00:48:34 17° E 00:49:03 17° E visible
05 Oct 3.9 02:23:15 10° NNE 02:28:25 78° WNW 02:29:31 55° SW visible
05 Oct 5.7 04:03:58 10° NNW 04:06:52 15° NW 04:09:45 10° W visible
06 Oct 4.4 01:50:30 10° NNE 01:55:35 58° E 01:56:14 54° SE visible
06 Oct 5.1 03:30:21 10° N 03:34:30 25° WNW 03:36:42 19° W visible
07 Oct 5.5 01:18:02 10° NNE 01:22:37 32° E 01:22:56 31° ESE visible
07 Oct 4.4 02:57:08 10° N 03:02:00 43° WNW 03:03:24 35° WSW visible
